Christchurch, New Zealand

5:53 AM NZST on August 21, 2017 (GMT +1200)
Christchurch

Weather History for 93780 - December, 2013

Change the Weather History Date:

Tuesday, December 31, 2013

  Actual Average Record
Temperature  
Mean Temperature 60 °F -  
Max Temperature 71 °F 68 °F - ()
Min Temperature 50 °F 50 °F - ()
Degree Days  
Heating Degree Days 4    
Growing Degree Days 10 (Base 50)    
Moisture  
Dew Point 40 °F    
Average Humidity 48    
Maximum Humidity 71    
Minimum Humidity 27    
Precipitation  
Precipitation 0.00 in - - ()
Sea Level Pressure  
Sea Level Pressure 29.60 in    
Wind  
Wind Speed 6 mph ()    
Max Wind Speed 14 mph    
Max Gust Speed -    
Visibility 6.2 miles    
Events      
T = Trace of Precipitation, MM = Missing Value Source: Averaged Metar Reports

Daily Weather History Graph

Daily Weather History Graph

Search for Another Location

Airport or City:

Trip Planner

Search our weather history database for the weather conditions in past years. The results will help you decide how hot, cold, wet, or windy it might be!

Date:

Astronomy

Dec. 31, 2013 Rise Set
Actual Time 5:51 AM NZDT 9:13 PM NZDT
Civil Twilight 5:15 AM NZDT 9:49 PM NZDT
Nautical Twilight 4:29 AM NZDT 10:35 PM NZDT
Astronomical Twilight 3:31 AM NZDT 11:33 PM NZDT
Moon 4:25 AM NZDT (12/31) 7:38 PM NZDT (12/31)
Length of Visible Light 16h 33m
Length of Day
15h 22m
Waning Crescent, 3% of the Moon is Illuminated
Dec 31
Waning Crescent
Jan 2
New
Jan 8
First Quarter
Jan 16
Full
Jan 24
Last Quarter

Hourly Weather History & Observations

Time (NZDT) Temp. Dew Point Humidity Pressure Visibility Wind Dir Wind Speed Gust Speed Precip Events Conditions
12:00 AM 57.2 °F 41.0 °F 55% 29.42 in 6.2 mi West 4.6 mph - N/A   Unknown
12:30 AM 59.0 °F 41.0 °F 51% 29.44 in 6.2 mi WSW 5.8 mph - N/A   Unknown
1:00 AM 55.4 °F 41.0 °F 58% 29.44 in 6.2 mi SW 4.6 mph - N/A   Unknown
1:30 AM 55.4 °F 41.0 °F 58% 29.47 in 6.2 mi SW 4.6 mph - N/A   Unknown
2:00 AM 53.6 °F 41.0 °F 62% 29.47 in 6.2 mi WSW 5.8 mph - N/A   Unknown
2:30 AM 53.6 °F 39.2 °F 58% 29.47 in 6.2 mi WSW 4.6 mph - N/A   Unknown
3:00 AM 50.0 °F 39.2 °F 66% 29.50 in 6.2 mi SSW 9.2 mph - N/A   Unknown
3:30 AM 50.0 °F 41.0 °F 71% 29.50 in 6.2 mi SSW 11.5 mph - N/A   Unknown
4:00 AM 50.0 °F 39.2 °F 66% 29.53 in 6.2 mi SSW 9.2 mph - N/A   Unknown
4:30 AM 50.0 °F 39.2 °F 66% 29.53 in 6.2 mi SSW 9.2 mph - N/A   Unknown
5:00 AM 51.8 °F 39.2 °F 62% 29.53 in 6.2 mi SW 8.1 mph - N/A   Unknown
5:30 AM 51.8 °F 41.0 °F 67% 29.56 in 6.2 mi WSW 5.8 mph - N/A   Unknown
6:00 AM 50.0 °F 41.0 °F 71% 29.56 in 6.2 mi SW 5.8 mph - N/A   Unknown
6:30 AM 53.6 °F 37.4 °F 54% 29.59 in 6.2 mi SW 4.6 mph - N/A   Unknown
7:00 AM 53.6 °F 39.2 °F 58% 29.59 in 6.2 mi West 3.5 mph - N/A   Unknown
7:30 AM 51.8 °F 42.8 °F 71% 29.59 in 6.2 mi NW 3.5 mph - N/A   Unknown
8:00 AM 53.6 °F 42.8 °F 67% 29.62 in 6.2 mi ENE 2.3 mph - N/A   Unknown
8:30 AM 55.4 °F 42.8 °F 63% 29.62 in 6.2 mi North 3.5 mph - N/A   Unknown
9:00 AM 59.0 °F 44.6 °F 59% 29.62 in 6.2 mi NE 4.6 mph - N/A   Unknown
9:30 AM 62.6 °F 44.6 °F 52% 29.65 in 6.2 mi NNE 5.8 mph - N/A   Unknown
10:00 AM 64.4 °F 41.0 °F 42% 29.65 in 6.2 mi North 6.9 mph - N/A   Unknown
10:30 AM 66.2 °F 37.4 °F 35% 29.65 in 6.2 mi NW 12.7 mph - N/A   Unknown
11:00 AM 66.2 °F 39.2 °F 37% 29.65 in 6.2 mi NW 10.4 mph - N/A   Unknown
11:30 AM 68.0 °F 35.6 °F 30% 29.65 in 6.2 mi NW 8.1 mph - N/A   Unknown
12:00 PM 69.8 °F 37.4 °F 31% 29.62 in 6.2 mi WNW 8.1 mph - N/A   Unknown
12:30 PM 69.8 °F 35.6 °F 28% 29.65 in 6.2 mi WNW 5.8 mph - N/A   Unknown
1:00 PM 69.8 °F 37.4 °F 31% 29.65 in 6.2 mi WNW 11.5 mph - N/A   Unknown
1:30 PM 71.6 °F 39.2 °F 31% 29.65 in 6.2 mi NW 8.1 mph - N/A   Partly Cloudy
2:00 PM 71.6 °F 39.2 °F 31% 29.65 in 6.2 mi West 5.8 mph - N/A   Partly Cloudy
2:30 PM 71.6 °F 42.8 °F 35% 29.65 in 6.2 mi East 13.8 mph - N/A   Scattered Clouds
3:00 PM 69.8 °F 42.8 °F 38% 29.62 in 6.2 mi East 13.8 mph - N/A   Mostly Cloudy
3:30 PM 71.6 °F 44.6 °F 38% 29.62 in 6.2 mi ENE 10.4 mph - N/A   Partly Cloudy
4:00 PM 71.6 °F 48.2 °F 43% 29.62 in 6.2 mi East 5.8 mph - N/A   Partly Cloudy
4:30 PM 69.8 °F 46.4 °F 43% 29.62 in 6.2 mi ESE 12.7 mph - N/A   Partly Cloudy
5:00 PM 69.8 °F 48.2 °F 46% 29.62 in 6.2 mi SE 11.5 mph - N/A   Unknown
5:30 PM 69.8 °F 46.4 °F 43% 29.62 in 6.2 mi East 5.8 mph - N/A   Scattered Clouds
6:00 PM 69.8 °F 44.6 °F 40% 29.65 in 6.2 mi ESE 3.5 mph - N/A   Unknown
6:30 PM 69.8 °F 35.6 °F 28% 29.62 in 6.2 mi WNW 9.2 mph - N/A   Unknown
7:00 PM 71.6 °F 35.6 °F 27% 29.62 in 6.2 mi NW 8.1 mph - N/A   Unknown
7:30 PM 69.8 °F 35.6 °F 28% 29.65 in 6.2 mi WNW 10.4 mph - N/A   Unknown
8:00 PM 68.0 °F 35.6 °F 30% 29.65 in 6.2 mi WNW 9.2 mph - N/A   Unknown
8:30 PM 66.2 °F 35.6 °F 32% 29.65 in 6.2 mi WNW 9.2 mph - N/A   Unknown
9:00 PM 64.4 °F 35.6 °F 34% 29.68 in 6.2 mi WNW 10.4 mph - N/A   Unknown
9:30 PM 62.6 °F 37.4 °F 39% 29.68 in 6.2 mi WNW 9.2 mph - N/A   Unknown
10:00 PM 59.0 °F 37.4 °F 45% 29.71 in 6.2 mi WNW 8.1 mph - N/A   Unknown
10:30 PM 57.2 °F 39.2 °F 51% 29.71 in 6.2 mi NNW 3.5 mph - N/A   Unknown
11:00 PM 55.4 °F 39.2 °F 54% 29.71 in 6.2 mi NW 2.3 mph - N/A   Unknown
11:30 PM 53.6 °F 39.2 °F 58% 29.71 in 6.2 mi NW 4.6 mph - N/A   Unknown